Regional Weather Roundup
Issued by NWS

Home | Current Version | Previous Version | Graphics & Text | Print | Product List | Glossary On
Versions: 1 2 3 4 5 6 7 8 9 10 11 12 13 14 15 16 17 18 19 20 21 22 23 24 25 26 27 28 29 30 31 32 33 34 35 36 37 38 39 40 41 42 43 44 45 46 47 48 49 50
351
ASUS43 KOAX 232002
RWRNE

WEATHER ROUNDUP FOR NEBRASKA
NATIONAL WEATHER SERVICE OMAHA NE
300 PM CDT SAT JUL 23 2016

NOTES: SATELLITE DATA IS BEING USED TO AUGMENT CLOUD COVER ABOVE
       12000 FEET.
       "FAIR" INDICATES FEW OR NO CLOUDS BELOW 12,000 FEET WITH NO
       SIGNIFICANT WEATHER AND/OR OBSTRUCTIONS TO VISIBILITY.

  * THESE STATIONS DO NOT REPORT WEATHER SUCH AS RAIN...SNOW OR FOG.

NEZ001>004-019>022-054>056-232100-
NEBRASKA PANHANDLE

CITY           SKY/WX    TMP DP  RH WIND       PRES   REMARKS
SCOTTSBLUFF    SUNNY     96  49  20 NW9       29.98F HX  93
ALLIANCE       SUNNY     91  52  26 NW17      29.97F
CHADRON        SUNNY     92  55  28 E9        29.93F HX  90
KIMBALL        SUNNY     93  48  21 N9        30.05F HX  90
SIDNEY         SUNNY     98  49  18 N18       30.01F HX  95
$$

NEZ057>060-069>072-079>082-232100-
SOUTHWEST NEBRASKA

CITY           SKY/WX    TMP DP  RH WIND       PRES   REMARKS
NORTH PLATTE   CLOUDY    91  70  49 W10       29.87F HX  96
IMPERIAL       SUNNY     93  63  36 W7        29.92F HX  94
LEXINGTON      SUNNY     90  70  51 W3        29.86S HX  96
MCCOOK         MOSUNNY   92  68  45 CALM      29.87F HX  96
OGALLALA       SUNNY     96  54  24 NW10G16   29.92S HX  94
$$

NEZ005>010-023>029-035>040-094-232100-
NORTH CENTRAL NEBRASKA

CITY           SKY/WX    TMP DP  RH WIND       PRES   REMARKS
VALENTINE      SUNNY     94  56  27 NW16G25   29.85R HX  92
AINSWORTH      SUNNY     94  70  45 NW12G23   29.83R HX  99
BROKEN BOW     SUNNY     89  72  56 W12       29.84F HX  96
O`NEILL        SUNNY     96  66  37 SW15      29.78F HX  99
ORD            SUNNY     89  70  53 SW12      29.80F HX  94
THEDFORD       SUNNY     97  60  29 W13       29.86S HX  97
$$

NEZ041-046>049-061>064-073>077-083>087-232100-
SOUTH CENTRAL NEBRASKA

CITY           SKY/WX    TMP DP  RH WIND       PRES   REMARKS
GRAND ISLAND   SUNNY     93  70  46 SW13      29.84S HX  99
AURORA         SUNNY     91  72  53 SW8       29.83F HX  99
HASTINGS       SUNNY     96  67  38 S12       29.84F HX 100
HEBRON         CLOUDY    93  71  48 S10       29.83S HX  99
HOLDREGE       SUNNY     92  67  44 SW7       29.86S HX  95
KEARNEY *      SUNNY     91  72  52 S12       29.86S HX  98
$$

NEZ011>018-030>034-042>045-232100-
NORTHEAST NEBRASKA

CITY           SKY/WX    TMP DP  RH WIND       PRES   REMARKS
NORFOLK        SUNNY     92  74  55 S10       29.79F HX 101
ALBION         SUNNY     90  72  54 S9        29.80F HX  97
BLAIR          PTSUNNY   89  74  62 S12G18    29.82F HX  98
FREMONT        CLOUDY    90  73  58 SE10      29.81F HX  98
TEKAMAH        SUNNY     90  75  61 S10       29.79F HX 100
WAYNE          SUNNY     91  80  69 S7        29.79F HX 107
$$

NEZ050>053-065>068-078-088>093-232100-
SOUTHEAST NEBRASKA

CITY           SKY/WX    TMP DP  RH WIND       PRES   REMARKS
LINCOLN        CLOUDY    91  71  51 SW10      29.83S HX  97
OMAHA EPPLEY   PTSUNNY   90  72  55 S16       29.81F HX  97
BEATRICE       CLOUDY    88  71  57 S10       29.83S HX  94
FALLS CITY     CLOUDY    91  75  59 S10       29.85S HX 101
NEBRASKA CITY  CLOUDY    84  78  82 S6        29.84S HX  96
PLATTSMOUTH    CLOUDY    89  77  67 S6        29.85R HX 102
$$

NEZ044-045-051>053-067-232100-
OMAHA AREA

CITY           SKY/WX    TMP DP  RH WIND       PRES   REMARKS
OMAHA EPPLEY   PTSUNNY   90  72  55 S16       29.81F HX  97
BLAIR          PTSUNNY   89  74  62 S12G18    29.82F HX  98
FREMONT        CLOUDY    90  73  58 SE10      29.81F HX  98
MILLARD        CLOUDY    90  74  59 S10       29.82F HX  98
OFFUTT AFB     CLOUDY    91  76  61 S9        29.83S HX 101
PLATTSMOUTH    CLOUDY    89  77  67 S6        29.85R HX 102
WAHOO          FAIR      92  75  57 S9        29.82S HX 102
$$




USA.gov is the U.S. government's official web portal to all federal, state and local government web resources and services.